THY2ML LOWW-LTFM

Flight info

Callsign THY2ML
Flight time N/A
Altitude 37000
Route ADAMA2B/16 ADAMA Z648 VEDER L140 ALAMU DCT EPARI DCT TEGRI DCT SODGO DCT NULGO DCT TIMUR DCT XANEX L606 GASRU DCT RILEX
Aircraft A320/M-SDE3FGHIRWY/LB1

Departure

Time 2026-05-04 17:24
Airport Vienna International Airport (LOWW)

Arrival

Time N/A
Airport İstanbul Airport (LTFM)
Time Latitude Longitude Altitude Speed Heading
2026-05-04 17:08 48.11787 16.56187 608 ft 0 kts 343°
2026-05-04 17:11 48.11786 16.56187 608 ft 0 kts 343°
2026-05-04 17:13 48.11773 16.56193 622 ft 4 kts 348°
2026-05-04 17:14 48.11694 16.56186 613 ft 4 kts 27°
2026-05-04 17:14 48.11674 16.56163 624 ft 4 kts 65°
2026-05-04 17:14 48.11671 16.56141 618 ft 0 kts 116°
2026-05-04 17:17 48.11650 16.56206 609 ft 7 kts 116°
2026-05-04 17:18 48.11625 16.56280 619 ft 9 kts 116°
2026-05-04 17:18 48.11575 16.56433 614 ft 7 kts 116°
2026-05-04 17:19 48.11557 16.56486 611 ft 3 kts 116°
2026-05-04 17:19 48.11513 16.56624 619 ft 12 kts 116°
2026-05-04 17:20 48.11427 16.56886 620 ft 16 kts 116°
2026-05-04 17:20 48.11324 16.57201 618 ft 13 kts 116°
2026-05-04 17:20 48.11313 16.57330 609 ft 14 kts 45°
2026-05-04 17:21 48.11504 16.57472 619 ft 17 kts 30°
2026-05-04 17:21 48.11730 16.57506 613 ft 18 kts 345°
2026-05-04 17:22 48.11828 16.57514 624 ft 9 kts 68°
2026-05-04 17:22 48.11848 16.57616 622 ft 11 kts 71°
2026-05-04 17:23 48.11757 16.57911 613 ft 0 kts 164°
2026-05-04 17:23 48.11337 16.58089 622 ft 89 kts 164°
2026-05-04 17:24 48.10577 16.58411 622 ft 136 kts 164°
2026-05-04 17:24 48.07376 16.59771 2065 ft 164 kts 164°
2026-05-04 17:25 48.06273 16.60278 2577 ft 173 kts 159°
2026-05-04 17:25 48.04312 16.62884 3458 ft 205 kts 123°
2026-05-04 17:26 48.03829 16.67258 4780 ft 232 kts 93°
2026-05-04 17:26 48.03989 16.75449 6475 ft 280 kts 90°
2026-05-04 17:27 48.04111 16.81356 8148 ft 287 kts 90°
2026-05-04 17:27 48.03666 16.87290 9826 ft 291 kts 105°
2026-05-04 17:28 48.02695 16.93461 10694 ft 327 kts 105°